TimePDT,TemperatureF,Dew PointF,Humidity,Sea Level PressureIn,VisibilityMPH,Wind Direction,Wind SpeedMPH,Gust SpeedMPH,PrecipitationIn,Events,Conditions,WindDirDegrees,DateUTC
12:56 AM,39.9,36.0,86,29.89,10.0,Calm,Calm,-,N/A,,Clear,0,2013-05-06 07:56:00
1:56 AM,37.0,35.1,93,29.89,10.0,Calm,Calm,-,N/A,,Clear,0,2013-05-06 08:56:00
2:56 AM,36.0,33.1,89,29.88,10.0,Calm,Calm,-,N/A,,Clear,0,2013-05-06 09:56:00
3:56 AM,35.1,33.1,92,29.88,10.0,Calm,Calm,-,N/A,,Clear,0,2013-05-06 10:56:00
4:56 AM,34.0,32.0,92,29.89,10.0,Calm,Calm,-,N/A,,Clear,0,2013-05-06 11:56:00
5:56 AM,33.1,30.9,92,29.91,10.0,Calm,Calm,-,N/A,,Clear,0,2013-05-06 12:56:00
6:56 AM,39.0,34.0,82,29.89,10.0,Calm,Calm,-,N/A,,Clear,0,2013-05-06 13:56:00
7:56 AM,51.1,39.9,66,29.87,10.0,Calm,Calm,-,N/A,,Clear,0,2013-05-06 14:56:00
8:56 AM,62.1,39.9,44,29.87,10.0,Calm,Calm,-,N/A,,Clear,0,2013-05-06 15:56:00
9:56 AM,69.1,37.9,32,29.86,10.0,Variable,3.5,-,N/A,,Clear,0,2013-05-06 16:56:00
10:56 AM,71.1,36.0,28,29.87,10.0,Calm,Calm,-,N/A,,Clear,0,2013-05-06 17:56:00
11:56 AM,71.1,41.0,34,29.86,10.0,Variable,4.6,-,N/A,,Clear,0,2013-05-06 18:56:00
12:56 PM,73.0,41.0,31,29.85,10.0,Variable,5.8,-,N/A,,Clear,0,2013-05-06 19:56:00
1:56 PM,72.0,37.0,28,29.86,10.0,Calm,Calm,-,N/A,,Clear,0,2013-05-06 20:56:00
2:56 PM,73.0,39.0,29,29.84,10.0,Variable,3.5,-,N/A,,Clear,0,2013-05-06 21:56:00
3:56 PM,71.1,35.1,27,29.83,10.0,Variable,6.9,-,N/A,,Clear,0,2013-05-06 22:56:00
4:56 PM,71.1,39.0,31,29.83,10.0,North,8.1,-,N/A,,Clear,10,2013-05-06 23:56:00
5:56 PM,71.1,37.0,29,29.83,10.0,Variable,4.6,16.1,N/A,,Clear,0,2013-05-07 00:56:00
6:56 PM,69.1,39.0,33,29.81,10.0,Calm,Calm,-,N/A,,Clear,0,2013-05-07 01:56:00
7:56 PM,62.1,41.0,46,29.81,10.0,Calm,Calm,-,N/A,,Clear,0,2013-05-07 02:56:00
8:56 PM,55.0,42.1,62,29.81,10.0,Calm,Calm,-,N/A,,Clear,0,2013-05-07 03:56:00
9:56 PM,50.0,42.1,74,29.82,10.0,Calm,Calm,-,N/A,,Clear,0,2013-05-07 04:56:00
10:56 PM,46.9,39.9,77,29.83,10.0,Calm,Calm,-,N/A,,Clear,0,2013-05-07 05:56:00
11:56 PM,44.1,39.0,82,29.84,10.0,Calm,Calm,-,N/A,,Clear,0,2013-05-07 06:56:00